Terminal Aerodrome Forecast
Issued by NWS Bismarck, ND

Home | Current Version | Previous Version | Graphics & Text | Print | Product List | Glossary On
Versions: 1 2 3 4 5 6 7 8 9 10 11 12 13 14 15 16 17
000
FTUS43 KBIS 201100
TAFBIS
TAF
KBIS 201131Z 2012/2112 VRB03KT P6SM SKC
     FM201800 17009KT P6SM SKC
     FM210100 13009KT P6SM SKC=

USA.gov is the U.S. government's official web portal to all federal, state and local government web resources and services.